Location: Great Neck Gardens
(40.7972°N, 73.7239°W)
Time: 08:16:58
(UTC+00:00)

Daily predictions for brighter satellites

Satellite Brightness Start Highest point End
(mag) Time Altitude Azimuth Time Altitude Azimuth Time Altitude Azimuth
STARLINK-1117 4.1 23:40:02 10° NW 23:43:59 46° NNE 23:47:56 10° ESE
STARLINK-1095 2.9 23:41:58 10° NW 23:45:05 66° NE 23:48:10 10° ESE
STARLINK-1077 2.9 23:42:25 10° NW 23:45:31 67° NE 23:48:36 10° ESE
STARLINK-1075 2.9 23:42:53 10° NW 23:45:59 67° NE 23:49:05 10° ESE
Abrixas rocket 2.1 23:43:30 10° SW 23:46:23 51° SE 23:49:16 10° ENE
STARLINK-1093 2.9 23:43:16 10° NW 23:46:26 68° NE 23:49:33 10° ESE
STARLINK-1074 2.9 23:43:44 10° NW 23:46:52 69° NE 23:50:01 10° ESE
STARLINK-1087 2.9 23:44:12 10° NW 23:47:20 70° NE 23:50:25 10° ESE
STARLINK-1088 2.9 23:44:40 10° NW 23:47:46 70° NE 23:50:52 10° ESE
STARLINK-1115 2.9 23:45:05 10° NW 23:48:14 71° NE 23:51:22 10° ESE
STARLINK-1076 2.9 23:45:31 10° NW 23:48:40 72° NE 23:51:48 10° ESE
STARLINK-1078 4.0 23:44:49 10° NW 23:48:48 50° NNE 23:52:47 10° ESE
STARLINK-1092 2.9 23:45:59 10° NW 23:49:07 73° NE 23:52:16 10° ESE
Cosmos 1553 Rocket 4.3 23:43:10 10° SSW 23:49:13 73° W 23:55:19 10° N
STARLINK-1080 2.9 23:46:28 10° NW 23:49:35 74° NE 23:52:42 10° SE
STARLINK-1090 2.8 23:46:55 10° NW 23:50:02 74° NE 23:53:08 10° SE
STARLINK-1089 2.8 23:47:21 10° NW 23:50:29 75° NE 23:53:35 10° SE
Orbus 7S? 2.5 23:47:46 10° NW 23:50:37 74° SW 23:53:01 10° SE
STARLINK-1107 2.8 23:47:49 10° NW 23:50:56 76° NE 23:54:02 10° SE
STARLINK-1108 3.9 23:49:38 10° NW 23:53:40 54° NE 23:57:41 10° ESE
Cosmos 1331 Rocket 4.0 23:48:31 10° NNW 23:53:41 71° ENE 23:58:48 10° SSE
CZ-2C R/B 4.2 23:54:13 10° ENE 23:56:45 14° E 23:59:16 10° ESE
